{"data":{"norad_id":63469,"intl_designator":"2025-070K","name":"STARLINK-33587","alt_names":[],"object_type":"PAYLOAD","status":"ACTIVE","operator":null,"country":"US","launch_date":"2025-04-06","launch_site_code":"AFETR","launch_vehicle":null,"mission":null,"orbit_class":"UNKNOWN","rcs_meters":null,"size_class":null,"mass_kg":null,"dimensions":null,"purposes":["comms"],"wikipedia_slug":null,"has_3d_model":false,"image_url":null,"decayed_at":null,"tle_current":{"epoch":"2026-09-20T07:34:59.617920Z","epoch_age_seconds":172350,"freshness":"FRESH","line1":"1 63469U 25070K   26263.31596780  .00011125  00000+0  41311-3 0  9992","line2":"2 63469  43.0007 240.5091 0000696 284.2688  75.8087 15.27587052 82742","mean_motion":15.27587052,"eccentricity":6.96e-5,"inclination_deg":43.0007,"raan_deg":240.5091,"arg_perigee_deg":284.2688,"mean_anomaly_deg":75.8087,"bstar":0.00041311,"rev_number":8274,"period_min":94.266313537724,"perigee_km":482.55044281334,"apogee_km":483.50551697854,"semimajor_km":6861.1649798959,"source":"CELESTRAK","updated_at":"2026-09-21T09:00:35.009044Z"}}}